Regional Weather Roundup
Issued by NWS Raleigh/Durham, NC

Home | Current Version | Previous Version | Text Only | Print | Product List | Glossary On
Versions: 1 2 3 4 5 6 7 8 9 10 11 12 13 14 15 16 17 18 19 20 21 22 23 24 25 26 27 28
000
ASUS42 KRAH 282210
RWRRAH
NORTH CAROLINA WEATHER ROUNDUP
NATIONAL WEATHER SERVICE RALEIGH NC
600 PM EDT SAT MAY 28 2016

NOTE: "FAIR" INDICATES FEW OR NO CLOUDS BELOW 12,000 FEET WITH NO
SIGNIFICANT WEATHER AND/OR OBSTRUCTIONS TO VISIBILITY.

NCZ001-053-055-056-065-067-282300-
WESTERN NORTH CAROLINA

CITY           SKY/WX    TMP DP  RH WIND       PRES   REMARKS
ASHEVILLE      CLOUDY    78  52  40 SE6       30.19R
JEFFERSON      MOSUNNY   69  55  60 CALM      30.24S
MORGANTON      MOSUNNY   80  56  43 E5        30.19S
HICKORY        MOSUNNY   81  55  40 E5        30.14S
RUTHERFORDTON  CLOUDY    80  55  41 SE5       30.14S
MOUNT AIRY     MOSUNNY   82  58  43 SE5       30.17
BOONE          CLOUDY    71  53  52 SE7       30.25R
$$

NCZ021-022-025-041-071-084-088-282300-
CENTRAL NORTH CAROLINA

CITY           SKY/WX    TMP DP  RH WIND       PRES   REMARKS
CHARLOTTE      CLOUDY    82  52  35 E6        30.12S
GREENSBORO     PTSUNNY   83  53  35 NE8G17    30.12F
WINSTON-SALEM  SUNNY     83  54  36 NE7       30.14F
RALEIGH-DURHAM MOSUNNY   86  59  39 E9        30.12S
FORT BRAGG     CLOUDY    83  64  52 SE10G18   30.09S
FAYETTEVILLE   CLOUDY    82  65  56 SE13      30.10S
BURLINGTON     SUNNY     83  57  41 E6        30.12F
LAURINBURG     CLOUDY    84  64  50 E8        30.10F
$$

NCZ011-015-027-028-043-044-047-080-103-282300-
NORTHEASTERN NORTH CAROLINA

CITY           SKY/WX    TMP DP  RH WIND       PRES   REMARKS
ROCKY MT-WILSO MOSUNNY   83  64  52 VRB3      30.11S
GREENVILLE     MOSUNNY   84  64  51 SE9       30.13S
WASHINGTON     SUNNY     82  65  56 SE10      30.12F
ELIZABETH CITY SUNNY     80  61  52 SE13      30.15S
MANTEO         NOT AVBL
CAPE HATTERAS  CLOUDY    77  71  82 E10       30.14F
$$

NCZ078-087-090-091-093-098-101-282300-
SOUTHEASTERN NORTH CAROLINA

CITY           SKY/WX    TMP DP  RH WIND       PRES   REMARKS
LUMBERTON      HVY RAIN  73  69  87 E13       30.11R FOG
GOLDSBORO      NOT AVBL
KINSTON        CLOUDY    84  64  51 SE7       30.12F
KENANSVILLE    MOSUNNY   81  64  56 E3        30.12F
NEW BERN       SUNNY     82  65  56 E8        30.12F
CHERRY POINT   PTSUNNY   82  67  60 E14       30.12F
BEAUFORT       CLOUDY    80  70  71 E12G18    30.11F
JACKSONVILLE   MOSUNNY   83  66  56 E12       30.10F
WILMINGTON     CLOUDY    78  66  66 E13       30.10F
$$





USA.gov is the U.S. government's official web portal to all federal, state and local government web resources and services.